Regional Weather Roundup
Issued by NWS

Home | Current Version | Previous Version | Text Only | Print | Product List | Glossary On
Versions: 1 2 3 4 5 6 7 8 9 10 11 12 13 14 15 16 17 18 19 20 21 22 23 24 25 26 27 28 29 30 31 32 33 34 35 36 37 38 39 40 41 42 43 44 45 46 47 48 49 50
476
ASUS44 KMEG 090110
RWRTN
TENNESSEE HOURLY STATE WEATHER ROUNDUP
NATIONAL WEATHER SERVICE MEMPHIS TN
700 PM CST MON FEB 08 2016

TNZ002-004-019-021-049-052-054-088>092-090200-
WEST TENNESSEE

CITY           SKY/WX    TMP DP  RH WIND       PRES   REMARKS
MEMPHIS INTL   CLOUDY    39  20  46 NW14G24   30.01R WCI  31
NWS MEMPHIS      N/A     38 N/A N/A MISG        N/A
JACKSON        CLOUDY    36  21  54 NW15G24   29.96S WCI  27
DYERSBURG      CLOUDY    36  19  51 W10G20    29.99S WCI  28
UNION CITY     CLOUDY    30  18  59 NW13      29.95R WCI  20
PARIS          CLOUDY    28  18  64 W9        29.93R WCI  20
$$

TNZ008-025-027-028-033-062-065-066-090200-
NORTH MIDDLE TENNESSEE

CITY           SKY/WX    TMP DP  RH WIND       PRES   REMARKS
NASHVILLE      CLOUDY    32  24  72 W9G18     29.90R WCI  24
CLARKSVILLE    CLOUDY    30  20  66 NW12      29.90R WCI  20
SMYRNA         PTCLDY    30  27  86 NW13      29.91R WCI  20
COOKEVILLE     PTCLDY    30  27  86 VRB6      29.84R WCI  24
CROSSVILLE     LGT SNOW  28  23  81 W18G26    29.80R WCI  15
$$

TNZ061-075-076-078-094-096-097-090200-
SOUTH MIDDLE TENNESSEE

CITY           SKY/WX    TMP DP  RH WIND       PRES   REMARKS
FAYETTEVILLE   CLOUDY    36  23  60 W9G16     29.88R WCI  29
TULLAHOMA      CLOUDY    32  25  74 W12       29.87R WCI  23
WINCHESTER     CLOUDY    34  25  69 NW6       29.87S WCI  29
MCMINNVILLE    MOCLDY    30  28  93 NW6       29.85S WCI  24
COLUMBIA       CLOUDY    34  25  69 NW8       29.89R WCI  27
SHELBYVILLE    CLOUDY    34  25  69 W12       29.89S WCI  25
$$

TNZ017-018-042-046-047-090200-
NORTHEAST TENNESSEE

CITY           SKY/WX    TMP DP  RH WIND       PRES   REMARKS
TRI CITIES     FLURRIES  34  32  92 SW7       29.72R WCI  28
$$

TNZ012-013-036-069-073-074-090200-
CENTRAL EAST TENNESSEE

CITY           SKY/WX    TMP DP  RH WIND       PRES   REMARKS
KNOXVILLE      CLOUDY    39  23  52 SW9       29.76S WCI  33
OAK RIDGE      CLOUDY    39  26  59 W6        29.77S WCI  35
GATLINBURG     CLOUDY    37  19  48 W8        29.74F WCI  31
MORRISTOWN     CLOUDY    37  27  65 W8        29.73S WCI  31
$$

TNZ083-085-099-090200-
SOUTHEAST TENNESSEE

CITY           SKY/WX    TMP DP  RH WIND       PRES   REMARKS
CHATTANOOGA    FLURRIES  36  22  56 NW13G20   29.87R WCI  27
$$

SKY/WX REPORTED AS FAIR MEANS FEW OR NO CLOUDS BELOW
12 THOUSAND FEET.





USA.gov is the U.S. government's official web portal to all federal, state and local government web resources and services.